Weather Service Report


704 
ASUS44 KLIX 300310
RWRLIX
NEW ORLEANS REGIONAL WEATHER ROUNDUP
NATIONAL WEATHER SERVICE NEW ORLEANS LA
1000 PM CDT SAT AUG 29 2015

NOTE: "FAIR" INDICATES FEW OR NO CLOUDS BELOW 12,000 FEET WITH NO
      SIGNIFICANT WEATHER AND/OR OBSTRUCTIONS TO VISIBILITY.
      SKY/WX - SKY CONDITION AND SIGNIFICANT WEATHER.
      TMP - AIR TEMPERATURE.     DP    - DEWPOINT TEMPERATURE.
      RH  - RELATIVE HUMIDITY.   PRES  - PRESSURE.
      HI  - HEAT INDEX.          WCI   - WIND CHILL INDEX.

*  THESE STATIONS ARE NOT NWS OR FAA STATIONS AND ARE NOT UNDER
   NWS QUALITY CONTROL. 

LAZ038-040-048-061>063-065>067-069-300400-
SOUTHEAST LOUISIANA
  
CITY           SKY/WX    TMP DP  RH WIND       PRES   REMARKS
N.O. AUDUBON     N/A     82  70  68 MISG        N/A                   
N.O. INTL ARPT PTCLDY    79  68  69 S6        30.02R                  
N.O. LAKEFRONT PTCLDY    79  68  69 S6        30.03R                  
N.O. DOWNTOWN*   N/A     84  68  58 S5        30.03R                  
RESERVE*         N/A     81  70  68 SW5       30.03R                  
SLIDELL        PTCLDY    74  71  91 CALM      30.02R                  
BATON ROUGE    CLEAR     75  68  78 CALM      30.01R                  
BOOTHVILLE     CLEAR     80  70  71 CALM      30.03R                  
BELLE CHASSE   PTCLDY    73  70  90 SW3       30.02R                  
BOGALUSA*      NOT AVBL                                               
GALLIANO*      CLEAR     74  68  82 CALM      30.02R                  
NEW ROADS*       N/A     74  67  79 CALM      30.01R                  
GONZALES*        N/A     74  71  89 CALM      30.01R                  
HAMMOND*       CLEAR     73  66  78 CALM      30.04R                  
HOUMA*         CLEAR     76  69  78 CALM      30.02R                  
PORT FOURCHON* CLEAR     82  68  61 SW5       30.03S                  

$$

MSZ070-080>082-300400-
SOUTHERN MISSISSIPPI
  
CITY           SKY/WX    TMP DP  RH WIND       PRES   REMARKS
MCCOMB         PTCLDY    75  66  73 S3        30.03R                  
GULFPORT       PTCLDY    77  70  79 CALM      30.02R                  
BILOXI         CLOUDY    81  67  63 S5        30.03R                  
PASCAGOULA     MOCLDY    73  71  93 CALM      30.04R                  

$$

COASTAL OBSERVATIONS
LAKE AND NEARSHORE STATIONS
  
STATION/POSITION TIME  TEMP    WIND        PRES    WAVE
                       AIR SEA DIR/SP/G            HT/PER
                 (UTC) (F)     (DEG/KT/KT) (MB)    (FT/S)

OFFSHORE STATIONS
  
STATION/POSITION TIME  TEMP    WIND        PRES    WAVE
                       AIR SEA DIR/SP/G            HT/PER
                 (UTC) (F)     (DEG/KT/KT) (MB)    (FT/S)
64 S DAUPHIN ISL 0250   83 86  130/  6/  8 1017.4    2/ 6

$$


Return to Home page


Western Regional Climate Center, wrcc@dri.edu